Location: Goudex
(43.3760°N, 0.9543°E)
Time: 12:52:30
(UTC+00:00)

X-37B - Visible Passes

Search period start: 28 February 2021 00:00
Search period end: 10 March 2021 00:00
Orbit: 383 x 391 km, 45.0° (Epoch: 27 February)

Date Brightness Start Highest point End Pass type
(mag) Time Alt. Az. Time Alt. Az. Time Alt. Az.
28 Feb 4.2 03:48:36 10° E 03:48:36 10° E 03:48:38 10° E visible
28 Feb 0.8 05:20:53 31° W 05:22:08 56° SSW 05:25:14 10° ESE visible
01 Mar 2.4 04:25:14 29° ESE 04:25:14 29° ESE 04:26:58 10° ESE visible
01 Mar 2.3 05:57:41 10° W 06:00:08 21° SSW 06:02:35 10° SSE visible
02 Mar 1.4 05:01:59 34° SSW 05:01:59 34° SSW 05:04:50 10° SE visible
03 Mar 3.7 04:06:33 11° SE 04:06:33 11° SE 04:06:46 10° ESE visible
03 Mar 2.8 05:38:51 11° SW 05:39:47 12° SW 05:41:03 10° SSW visible
04 Mar 3.1 04:43:32 13° S 04:43:32 13° S 04:44:05 10° SSE visible
